| time (UTC) | temp F | wind direction | speed MPH | gust MPH | rain 1hr in | rain 24hr in | rain mn in | humidity % | barometer mb |
| 20260502220016 | 56 | 0 | 3.0 | 6.0 | 0.00 | 0.22 | 0.22 | 69 | 1018.7 |
| 20260502215036 | 56 | 0 | 2.0 | 4.0 | 0.00 | 0.22 | 0.22 | 69 | 1018.8 |
| 20260502214016 | 56 | 0 | 2.0 | 5.0 | 0.00 | 0.22 | 0.22 | 71 | 1018.9 |
| 20260502213016 | 56 | 338 | 2.0 | 5.0 | 0.00 | 0.22 | 0.22 | 71 | 1018.9 |
| 20260502212015 | 56 | 270 | 1.0 | 3.0 | 0.00 | 0.22 | 0.22 | 71 | 1019.1 |
| 20260502211016 | 57 | 0.0 | 0.0 | 0.00 | 0.22 | 0.22 | 68 | 1019.1 | |
| 20260502210016 | 57 | 0.0 | 0.0 | 0.00 | 0.22 | 0.22 | 69 | 1019.1 | |
| 20260502205015 | 57 | 0.0 | 0.0 | 0.00 | 0.22 | 0.22 | 69 | 1019.0 | |
| 20260502204015 | 56 | 0.0 | 0.0 | 0.00 | 0.22 | 0.22 | 70 | 1018.8 | |
| 20260502203016 | 56 | 0.0 | 2.0 | 0.00 | 0.22 | 0.22 | 74 | 1018.6 | |
| 20260502202016 | 56 | 23 | 1.0 | 3.0 | 0.00 | 0.22 | 0.22 | 77 | 1018.6 |
| 20260502201016 | 56 | 23 | 3.0 | 4.0 | 0.00 | 0.22 | 0.22 | 78 | 1018.3 |
| 20260502200015 | 56 | 45 | 3.0 | 4.0 | 0.00 | 0.22 | 0.22 | 79 | 1018.3 |
| 20260502195016 | 57 | 23 | 1.0 | 3.0 | 0.00 | 0.22 | 0.22 | 81 | 1018.3 |
| 20260502194035 | 56 | 23 | 2.0 | 3.0 | 0.00 | 0.22 | 0.22 | 82 | 1018.3 |
| 20260502193015 | 56 | 68 | 2.0 | 3.0 | 0.00 | 0.22 | 0.22 | 78 | 1018.4 |
| 20260502192035 | 56 | 90 | 2.0 | 5.0 | 0.00 | 0.22 | 0.22 | 78 | 1018.4 |
| 20260502191017 | 56 | 68 | 2.0 | 5.0 | 0.00 | 0.22 | 0.22 | 80 | 1018.1 |
| 20260502190017 | 56 | 45 | 3.0 | 5.0 | 0.00 | 0.22 | 0.22 | 79 | 1018.4 |
| 20260502185017 | 57 | 68 | 3.0 | 5.0 | 0.00 | 0.22 | 0.22 | 79 | 1018.2 |
| 20260502184017 | 57 | 45 | 3.0 | 5.0 | 0.00 | 0.22 | 0.22 | 80 | 1018.1 |
| 20260502183017 | 57 | 23 | 1.0 | 4.0 | 0.00 | 0.22 | 0.22 | 78 | 1018.3 |
| 20260502182017 | 57 | 45 | 2.0 | 4.0 | 0.00 | 0.22 | 0.22 | 78 | 1018.3 |
| 20260502181017 | 57 | 45 | 3.0 | 4.0 | 0.00 | 0.22 | 0.22 | 77 | 1018.2 |
| 20260502164017 | 58 | 45 | 3.0 | 5.0 | 0.00 | 0.22 | 0.22 | 75 | 1019.0 |
| 20260502163017 | 58 | 45 | 4.0 | 7.0 | 0.00 | 0.22 | 0.22 | 75 | 1019.3 |
| 20260502162017 | 58 | 68 | 5.0 | 8.0 | 0.00 | 0.22 | 0.22 | 74 | 1019.3 |
| 20260502161017 | 58 | 45 | 4.0 | 7.0 | 0.00 | 0.22 | 0.22 | 74 | 1019.3 |
| 20260502152017 | 58 | 45 | 4.0 | 7.0 | 0.00 | 0.22 | 0.22 | 72 | 1019.4 |
| 20260502151017 | 58 | 68 | 4.0 | 7.0 | 0.00 | 0.22 | 0.22 | 73 | 1019.5 |
| 20260502123016 | 54 | 45 | 6.0 | 9.0 | 0.00 | 0.22 | 0.22 | 83 | 1021.0 |
| 20260502122016 | 54 | 68 | 4.0 | 9.0 | 0.00 | 0.22 | 0.22 | 82 | 1021.2 |
| 20260502121016 | 54 | 23 | 6.0 | 9.0 | 0.00 | 0.22 | 0.22 | 81 | 1021.2 |
| 20260502115016 | 54 | 23 | 6.0 | 12.0 | 0.00 | 0.22 | 0.22 | 80 | 1021.1 |
| 20260502114016 | 54 | 23 | 4.0 | 6.0 | 0.00 | 0.22 | 0.22 | 79 | 1021.3 |
| 20260502113016 | 54 | 315 | 3.0 | 7.0 | 0.00 | 0.22 | 0.22 | 76 | 1021.6 |
| 20260502112016 | 54 | 270 | 3.0 | 8.0 | 0.00 | 0.22 | 0.22 | 75 | 1021.5 |
| 20260502111016 | 54 | 0.0 | 0.0 | 0.00 | 0.22 | 0.22 | 89 | 1021.6 | |
| 20260502110016 | 54 | 0.0 | 0.0 | 0.00 | 0.22 | 0.22 | 90 | 1021.9 | |
| 20260502105036 | 54 | 315 | 1.0 | 2.0 | 0.00 | 0.22 | 0.22 | 90 | 1021.9 |
| 20260502104016 | 53 | 315 | 1.0 | 3.0 | 0.00 | 0.22 | 0.22 | 90 | 1022.0 |
| 20260502103016 | 53 | 180 | 1.0 | 3.0 | 0.01 | 0.22 | 0.22 | 91 | 1022.0 |
| 20260502102016 | 53 | 158 | 1.0 | 3.0 | 0.02 | 0.22 | 0.22 | 91 | 1022.0 |
| 20260502101016 | 53 | 180 | 2.0 | 3.0 | 0.03 | 0.22 | 0.22 | 91 | 1022.0 |
| 20260502091016 | 53 | 158 | 2.0 | 3.0 | 0.03 | 0.19 | 0.19 | 91 | 1022.3 |
| 20260502071015 | 53 | 248 | 2.0 | 4.0 | 0.02 | 0.02 | 0.02 | 87 | 1022.1 |
| 20260502070015 | 53 | 158 | 2.0 | 4.0 | 0.02 | 0.02 | 0.02 | 85 | 1022.1 |
| 20260502065015 | 54 | 68 | 1.0 | 3.0 | 0.02 | 0.02 | 0.02 | 84 | 1022.2 |
| 20260502064016 | 54 | 45 | 3.0 | 5.0 | 0.02 | 0.02 | 0.02 | 81 | 1022.1 |
| 20260502063716 | 55 | 90 | 2.0 | 6.0 | 0.01 | 0.01 | 0.01 | 77 | 1022.2 |
| 20260502011027 | 54 | 23 | 6.0 | 9.0 | 0.00 | 0.00 | 0.00 | 79 | 1022.8 |
| 20260502010026 | 54 | 45 | 4.0 | 7.0 | 0.00 | 0.00 | 0.00 | 79 | 1022.8 |
| 20260502005026 | 54 | 45 | 4.0 | 7.0 | 0.00 | 0.00 | 0.00 | 79 | 1023.0 |
| 20260502004026 | 54 | 90 | 2.0 | 5.0 | 0.00 | 0.00 | 0.00 | 78 | 1023.1 |
| 20260502003026 | 55 | 90 | 1.0 | 2.0 | 0.00 | 0.00 | 0.00 | 77 | 1023.4 |
| 20260502002026 | 55 | 0.0 | 2.0 | 0.00 | 0.00 | 0.00 | 76 | 1023.5 | |
| 20260502001026 | 54 | 248 | 2.0 | 4.0 | 0.00 | 0.00 | 0.00 | 75 | 1023.6 |
| 20260502000026 | 54 | 248 | 1.0 | 3.0 | 0.00 | 0.00 | 0.00 | 76 | 1023.6 |
| 20260501235026 | 54 | 180 | 1.0 | 3.0 | 0.00 | 0.00 | 0.00 | 75 | 1023.6 |
| 20260501234026 | 55 | 0.0 | 2.0 | 0.00 | 0.00 | 0.00 | 76 | 1023.6 | |
| 20260501233026 | 55 | 180 | 1.0 | 2.0 | 0.00 | 0.00 | 0.00 | 73 | 1023.8 |
| 20260501232026 | 55 | 0.0 | 2.0 | 0.00 | 0.00 | 0.00 | 75 | 1023.8 | |
| 20260501231026 | 55 | 90 | 1.0 | 2.0 | 0.00 | 0.00 | 0.00 | 74 | 1023.7 |
| 20260501230026 | 55 | 68 | 2.0 | 4.0 | 0.00 | 0.00 | 0.00 | 72 | 1023.5 |
| 20260501225026 | 56 | 0 | 1.0 | 4.0 | 0.00 | 0.00 | 0.00 | 69 | 1023.4 |
| 20260501224026 | 56 | 0.0 | 2.0 | 0.00 | 0.00 | 0.00 | 70 | 1023.3 | |
| 20260501223046 | 56 | 0.0 | 2.0 | 0.00 | 0.00 | 0.00 | 70 | 1023.3 | |
| 20260501222026 | 56 | 203 | 1.0 | 3.0 | 0.00 | 0.00 | 0.00 | 69 | 1023.3 |
| 20260501221046 | 56 | 180 | 3.0 | 6.0 | 0.00 | 0.00 | 0.00 | 69 | 1023.3 |